TimeEST,TemperatureF,Dew PointF,Humidity,Sea Level PressureIn,VisibilityMPH,Wind Direction,Wind SpeedMPH,Gust SpeedMPH,PrecipitationIn,Events,Conditions,WindDirDegrees,DateUTC
12:54 AM,27.0,8.1,45,30.18,10.0,NW,20.7,26.5,N/A,,Clear,320,2013-02-18 05:54:00
1:54 AM,26.1,7.0,44,30.21,10.0,NW,12.7,25.3,N/A,,Clear,320,2013-02-18 06:54:00
2:54 AM,26.1,7.0,44,30.23,10.0,NW,12.7,21.9,N/A,,Clear,310,2013-02-18 07:54:00
3:54 AM,26.1,7.0,44,30.25,10.0,NNW,17.3,23.0,N/A,,Clear,330,2013-02-18 08:54:00
4:54 AM,25.0,7.0,46,30.27,10.0,NNW,10.4,-,N/A,,Clear,330,2013-02-18 09:54:00
5:54 AM,25.0,7.0,46,30.30,10.0,NW,10.4,19.6,N/A,,Clear,310,2013-02-18 10:54:00
6:54 AM,24.1,8.1,51,30.33,10.0,NNW,9.2,-,N/A,,Clear,330,2013-02-18 11:54:00
7:54 AM,27.0,9.0,47,30.36,10.0,NW,13.8,20.7,N/A,,Clear,320,2013-02-18 12:54:00
8:54 AM,30.0,8.1,40,30.37,10.0,NW,18.4,26.5,N/A,,Clear,320,2013-02-18 13:54:00
9:54 AM,32.0,9.0,38,30.37,10.0,NNW,16.1,-,N/A,,Clear,340,2013-02-18 14:54:00
10:54 AM,34.0,9.0,35,30.36,10.0,WNW,16.1,-,N/A,,Clear,300,2013-02-18 15:54:00
11:54 AM,36.0,10.0,34,30.35,10.0,NW,13.8,21.9,N/A,,Clear,310,2013-02-18 16:54:00
12:54 PM,37.9,10.9,33,30.32,10.0,WNW,9.2,-,N/A,,Clear,300,2013-02-18 17:54:00
1:54 PM,37.0,10.0,33,30.32,10.0,WNW,13.8,-,N/A,,Clear,290,2013-02-18 18:54:00
2:54 PM,37.9,12.0,35,30.31,10.0,West,10.4,-,N/A,,Clear,270,2013-02-18 19:54:00
3:54 PM,39.9,9.0,28,30.30,10.0,West,5.8,-,N/A,,Clear,270,2013-02-18 20:54:00
4:54 PM,39.0,10.9,32,30.29,10.0,West,5.8,-,N/A,,Clear,280,2013-02-18 21:54:00
5:54 PM,36.0,10.9,36,30.30,10.0,Calm,Calm,-,N/A,,Clear,0,2013-02-18 22:54:00
6:54 PM,32.0,12.9,45,30.31,10.0,SW,3.5,-,N/A,,Clear,220,2013-02-18 23:54:00
7:54 PM,34.0,18.0,52,30.31,10.0,SW,10.4,-,N/A,,Clear,230,2013-02-19 00:54:00
8:54 PM,34.0,21.0,59,30.30,10.0,SW,8.1,-,N/A,,Clear,220,2013-02-19 01:54:00
9:54 PM,36.0,25.0,64,30.29,10.0,SW,10.4,-,N/A,,Clear,220,2013-02-19 02:54:00
10:54 PM,36.0,25.0,64,30.27,10.0,SW,10.4,-,N/A,,Clear,220,2013-02-19 03:54:00
11:54 PM,37.9,26.1,62,30.27,10.0,SW,11.5,-,N/A,,Clear,220,2013-02-19 04:54:00